This is the latest recevied weather packets stored in our database for station/object SP1BMW-13. If no packets are shown the sender has not sent any weather packets the latest 10 day(s).
| Time | Temp. | Humidity | Pressure | Rain* | Wind** | Luminosity | Snow |
|---|---|---|---|---|---|---|---|
| 1777626081 | 18.89° C | 44% | 1027.7 hPa | 0 mm | 0.89 m/s, 312° | 563 W/m² | - |
| 1777626024 | 18.89° C | 42% | 1027.8 hPa | 0 mm | 1.79 m/s, 265° | 562 W/m² | - |
| 1777625960 | 18.89° C | 42% | 1027.7 hPa | 0 mm | 2.68 m/s, 327° | 561 W/m² | - |
| 1777625900 | 18.89° C | 44% | 1027.6 hPa | 0 mm | 0.89 m/s, 238° | 559 W/m² | - |
| 1777625841 | 18.33° C | 42% | 1027.6 hPa | 0 mm | 1.79 m/s, 286° | 558 W/m² | - |
| 1777625780 | 18.33° C | 44% | 1027.7 hPa | 0 mm | 1.34 m/s, 310° | 557 W/m² | - |
| 1777625721 | 18.33° C | 43% | 1027.6 hPa | 0 mm | 2.68 m/s, 296° | 555 W/m² | - |
| 1777625661 | 18.89° C | 43% | 1027.7 hPa | 0 mm | 1.79 m/s, 274° | 554 W/m² | - |
| 1777625600 | 18.89° C | 43% | 1027.6 hPa | 0 mm | 2.24 m/s, 319° | 553 W/m² | - |
| 1777625540 | 18.89° C | 43% | 1027.6 hPa | 0 mm | 1.79 m/s, 272° | 552 W/m² | - |
| 1777625481 | 18.89° C | 42% | 1027.7 hPa | 0 mm | 2.68 m/s, 315° | 550 W/m² | - |
| 1777625421 | 18.89° C | 42% | 1027.8 hPa | 0 mm | 0.89 m/s, 328° | 549 W/m² | - |
| 1777625360 | 18.89° C | 42% | 1027.9 hPa | 0 mm | 1.79 m/s, 295° | 547 W/m² | - |
| 1777625301 | 18.89° C | 41% | 1027.8 hPa | 0 mm | 1.79 m/s, 281° | 547 W/m² | - |
| 1777625241 | 18.89° C | 42% | 1027.7 hPa | 0 mm | 1.34 m/s, 261° | 545 W/m² | - |
| 1777625181 | 18.33° C | 43% | 1027.6 hPa | 0 mm | 0.45 m/s, 212° | 544 W/m² | - |
| 1777625120 | 18.33° C | 44% | 1027.8 hPa | 0 mm | 0.89 m/s, 321° | 542 W/m² | - |
| 1777625060 | 18.33° C | 44% | 1027.7 hPa | 0 mm | 0.45 m/s, 303° | 542 W/m² | - |
| 1777625000 | 18.33° C | 43% | 1027.7 hPa | 0 mm | 2.68 m/s, 248° | 540 W/m² | - |
| 1777624940 | 18.33° C | 43% | 1027.7 hPa | 0 mm | 1.79 m/s, 276° | 539 W/m² | - |
| 1777624880 | 18.33° C | 43% | 1027.8 hPa | 0 mm | 1.79 m/s, 292° | 538 W/m² | - |
| 1777624820 | 18.33° C | 44% | 1027.8 hPa | 0 mm | 0.89 m/s, 290° | 537 W/m² | - |
| 1777624760 | 18.33° C | 45% | 1027.9 hPa | 0 mm | 0.89 m/s, 194° | 535 W/m² | - |
| 1777624701 | 18.33° C | 43% | 1027.8 hPa | 0 mm | 0.89 m/s, 2° | 534 W/m² | - |
| 1777624640 | 18.33° C | 44% | 1027.8 hPa | 0 mm | 1.79 m/s, 291° | 532 W/m² | - |
* Rain latest hour (hover to see other rain measurements)
** Current wind speed in m/s (hover to see current wind gust speed)